Temperature
5 5 5 5 4 4 4 4 4 4 4 4 4 5 4 4 5 5 5 5 5 5 5 5 5 5 5 5 5 5 5 5 5 5 5 5 5 5 5 5 4 4 4
4 4 4 4 4 4 4 4 4 4 4 4 4 4 4 4 4 4 4 4 4 4 4 4 4 4 4 4 4 4 4 4 4 4 5 4 4 4 4 4 4 4 4
3 3 3 4 4 4 4 3 3 3 3 4 4 4 4 4 4 4 4 4 4 4 4 4 4 4 4 4 4 4 4 4 4 4 4 4 4 4 4 4 4 3 3
3 3 3 3 3 3 3 3 3 3 3 3 3 3 3 3 3 3 3 3 3 3 3 3 3 3 3 3 3 3 3 3 3 3 3 3 3 3 3 3 3 3 3
2 2 2 2 2 2 2 2 3 3 3 3 3 3 3 3 3 3 3 3 3 3 3 3 3 3 3 3 3 3 3 3 3 3 3 3 3 3 3 3 2 2 2
2 2 2 2 2 2 2 2 2 2 2 2 2 2 2 2 2 2 2 2 2 2 2 2 2 2 2 2 2 2 2 2 2 2 2 2 2 2 2 2 2 2 1
1 1 1 1 1 1 1 1 1 1 1 2 2 2 1 2 2 2 2 2 2 2 2 2 2 2 2 2 2 2 2 2 2 2 2 2 2 2 2 1 1 1 1
0 0 0 1 1 1 1 1 1 1 1 1 1 1 1 1 1 1 1 1 1 1 1 1 1 1 1 1 1 1 1 1 1 1 1 1 1 1 1 1 1 0 0
-0 0 0 0 0 0 0 0 0 0 0 0 0 0 0 0 1 0 0 0 0 0 1 1 0 1 1 1 1 1 1 1 1 1 0 0 0 0 0 -0 -0 -0 -0
-0 -0 -0 -0 -0 -0 -0 -0 -0 -0 -0 -0 -0 -0 -0 -0 -0 -0 -0 -0 -0 -0 -0 -0 0 0 0 -0 -0 -0 0 0 0 -0 -0 -0 -0 -0 -1 -1 -1 -1 -1
-1 -1 -1 -1 -1 -1 -1 -1 -1 -1 -1 -1 -1 -1 -1 -1 -1 -1 -1 -1 -1 -1 -1 -1 -0 -1 -1 -1 -1 -1 -1 -1 -1 -1 -1 -1 -1 -1 -1 -1 -1 -2 -2
-2 -1 -1 -1 -1 -1 -1 -1 -1 -1 -1 -1 -1 -1 -1 -1 -1 -1 -1 -1 -1 -1 -1 -1 -1 -1 -1 -1 -1 -1 -1 -1 -1 -1 -1 -1 -1 -2 -2 -2 -2 -2 -2
-2 -2 -2 -2 -2 -2 -2 -2 -2 -2 -2 -2 -2 -2 -2 -2 -2 -2 -2 -2 -2 -2 -2 -2 -2 -2 -2 -2 -2 -2 -2 -2 -2 -2 -2 -2 -2 -2 -2 -2 -3 -3 -3
-3 -3 -2 -3 -3 -3 -3 -3 -3 -3 -3 -3 -3 -3 -3 -2 -2 -2 -2 -2 -2 -2 -2 -2 -2 -2 -2 -2 -2 -3 -3 -3 -3 -3 -3 -3 -3 -3 -3 -3 -3 -3 -3
-3 -3 -3 -3 -3 -3 -3 -3 -4 -3 -4 -3 -3 -3 -3 -3 -3 -3 -3 -3 -3 -3 -3 -3 -3 -3 -3 -3 -3 -3 -3 -3 -3 -3 -3 -3 -3 -3 -3 -4 -4 -4 -4
-4 -4 -4 -4 -4 -4 -4 -4 -4 -4 -4 -4 -4 -4 -4 -4 -3 -3 -3 -3 -3 -3 -3 -3 -3 -3 -3 -3 -4 -4 -4 -4 -4 -4 -4 -4 -4 -4 -4 -4 -4 -4 -4
-5 -5 -5 -5 -5 -5 -4 -4 -4 -4 -4 -4 -4 -4 -4 -4 -4 -4 -4 -4 -4 -4 -4 -4 -4 -4 -4 -4 -4 -4 -4 -4 -4 -5 -5 -5 -5 -5 -5 -5 -5 -5 -5
-6 -5 -5 -5 -5 -5 -5 -5 -5 -5 -5 -5 -5 -5 -5 -4 -4 -4 -4 -4 -4 -4 -4 -5 -5 -5 -5 -5 -5 -5 -5 -5 -5 -5 -5 -5 -5 -5 -5 -5 -5 -6 -6
-6 -6 -6 -6 -6 -6 -6 -6 -6 -6 -6 -6 -5 -5 -5 -5 -5 -5 -5 -5 -5 -5 -5 -5 -5 -5 -5 -5 -5 -5 -5 -5 -5 -6 -6 -6 -6 -6 -6 -6 -6 -6 -6
-7 -6 -6 -6 -6 -6 -6 -6 -6 -6 -6 -6 -6 -6 -6 -6 -6 -5 -5 -5 -5 -6 -6 -6 -6 -6 -6 -6 -6 -6 -6 -6 -6 -6 -6 -6 -6 -6 -7 -7 -7 -7 -7
-7 -7 -7 -7 -7 -7 -7 -7 -7 -7 -7 -7 -7 -7 -7 -7 -6 -6 -6 -6 -6 -6 -6 -6 -6 -6 -6 -6 -6 -6 -6 -6 -6 -7 -7 -7 -7 -7 -7 -7 -7 -7 -7
-8 -8 -8 -8 -8 -8 -8 -8 -8 -8 -8 -7 -7 -7 -7 -7 -7 -7 -7 -7 -7 -7 -7 -7 -7 -7 -7 -7 -7 -7 -7 -7 -7 -7 -7 -7 -7 -7 -7 -7 -7 -7 -8
-8 -8 -8 -8 -8 -8 -8 -8 -8 -8 -8 -8 -8 -8 -8 -7 -7 -7 -7 -7 -7 -7 -7 -7 -7 -7 -7 -7 -7 -7 -7 -7 -7 -7 -7 -7 -7 -7 -8 -8 -8 -8 -8
-9 -9 -9 -9 -9 -9 -9 -9 -9 -8 -8 -8 -8 -8 -8 -8 -8 -8 -8 -8 -8 -8 -8 -8 -8 -8 -8 -8 -8 -7 -7 -7 -8 -8 -8 -8 -8 -8 -8 -8 -8 -8 -8
-9 -9 -9 -9 -9 -9 -9 -9 -9 -9 -9 -9 -9 -9 -9 -8 -8 -8 -8 -8 -8 -8 -8 -8 -8 -8 -8 -8 -8 -8 -8 -8 -8 -8 -8 -8 -8 -8 -8 -8 -8 -8 -9
-10 -9 -9 -9 -10 -10 -10 -10 -10 -9 -9 -9 -9 -9 -9 -9 -9 -9 -9 -9 -9 -9 -9 -8 -8 -8 -8 -8 -8 -8 -8 -8 -8 -8 -8 -8 -8 -8 -8 -9 -9 -9 -9
Wind_Speed
2 2 2 1 1 1 1 1 0 0 1 1 2 2 3 3 3 3 4 3 4 3 3 4 4 3 3 3 2 2 2 2 4 3 2 1 3 4 5 7 8 9 9
2 2 1 1 1 1 0 1 0 1 1 2 1 2 2 2 3 4 4 4 5 4 4 4 4 3 4 3 3 3 3 3 3 4 2 2 3 4 4 4 5 7 8
2 2 2 1 1 0 0 0 1 1 1 1 1 2 2 2 3 3 3 4 4 5 4 5 5 4 4 3 3 4 3 2 2 3 3 2 2 2 2 2 3 4 6
2 2 1 1 1 1 1 1 0 0 1 1 1 1 1 1 2 2 3 3 3 3 3 4 4 5 5 5 4 4 3 3 2 2 2 2 2 1 1 2 2 2 3
2 1 1 1 1 1 1 1 1 0 0 0 1 1 1 1 1 2 3 3 3 3 3 3 3 4 5 5 4 4 4 3 3 2 2 2 2 2 3 2 3 2 2
1 1 1 1 1 1 1 1 1 1 1 0 1 1 1 1 1 2 2 2 3 3 3 3 3 4 4 5 5 6 6 5 5 4 3 4 4 4 3 3 2 1 3
1 1 1 0 1 1 1 1 1 1 1 1 1 1 2 2 1 1 2 1 2 2 3 2 2 2 2 3 3 4 4 6 6 6 5 5 5 5 4 4 4 4 4
2 1 1 0 1 1 1 1 1 1 1 1 1 1 2 2 2 1 2 2 2 2 2 3 3 3 3 3 3 3 3 4 5 4 5 6 5 5 6 6 5 3 2
2 2 2 1 1 1 1 1 1 1 1 1 1 1 1 3 2 2 2 2 2 2 2 2 3 3 3 3 3 3 3 4 5 5 6 5 6 6 5 3 2 2 3
3 3 2 1 1 1 2 2 1 1 1 1 1 1 2 3 3 2 2 2 2 2 2 2 3 3 3 3 3 4 5 4 3 3 3 4 4 5 6 5 5 4 3
3 3 3 2 2 1 1 1 1 1 1 1 2 2 2 3 3 2 2 2 3 2 2 3 3 4 4 4 4 4 5 4 3 3 2 2 2 2 3 4 4 4 4
3 3 3 3 2 2 1 1 1 1 1 1 2 2 2 3 3 3 3 3 2 2 3 3 3 4 4 4 4 4 3 2 1 2 2 2 2 2 2 3 4 4 5
3 3 3 3 2 2 1 1 1 1 1 2 2 2 3 2 3 4 4 4 4 3 3 3 3 4 4 3 4 3 2 1 2 2 3 3 3 3 2 1 2 2 2
3 3 3 3 3 3 2 1 1 1 1 2 2 2 3 3 3 2 2 3 4 3 2 3 3 3 2 2 2 2 1 2 2 3 3 2 1 1 2 2 2 2 2
3 3 3 3 2 2 2 2 2 2 2 2 3 3 3 4 4 4 3 3 3 3 2 1 1 1 1 1 1 1 1 1 2 1 2 2 2 2 2 2 2 2 3
3 3 3 3 2 2 2 3 5 4 4 4 4 4 3 4 5 5 5 5 4 2 1 1 2 2 2 2 2 2 2 2 2 2 2 2 2 3 3 2 2 2 3
3 3 3 3 3 3 2 2 3 4 6 6 6 6 4 4 5 5 5 3 2 1 1 1 2 2 2 2 2 2 2 2 2 2 2 2 2 3 3 3 3 2 3
4 4 3 3 3 3 2 2 2 2 3 4 6 7 7 6 5 5 4 2 1 1 1 2 2 2 2 2 2 2 2 2 1 2 2 2 2 2 3 3 3 3 3
3 3 3 3 2 2 3 2 2 2 2 3 4 5 7 7 6 6 4 1 1 1 2 1 2 2 2 2 2 2 2 2 2 2 2 2 2 2 3 3 3 4 3
3 5 5 3 3 3 3 3 2 2 2 3 3 4 4 4 3 4 3 2 2 2 2 2 2 2 2 2 2 2 2 2 2 2 2 2 2 2 3 3 3 3 3
3 4 6 4 3 3 3 3 3 3 3 3 3 4 5 3 3 3 3 3 3 3 2 2 2 2 2 2 2 2 3 3 3 3 2 2 2 3 3 3 3 3 3
3 3 3 3 3 3 3 3 3 3 3 4 3 4 6 4 3 3 3 3 3 3 3 2 2 2 2 2 3 3 3 3 3 3 3 3 3 3 2 3 3 3 3
3 3 3 4 3 4 4 3 3 3 3 4 4 4 4 3 3 3 3 4 4 4 4 4 3 3 4 4 4 3 3 4 4 4 3 3 3 3 3 3 4 3 4
3 3 3 3 3 3 3 3 3 4 4 4 4 3 3 3 3 4 4 4 4 4 5 4 4 4 5 5 4 5 5 6 5 5 5 4 4 4 3 4 4 4 4
3 3 3 3 3 3 3 3 4 4 4 4 4 4 4 4 4 4 4 4 4 4 5 6 5 5 5 6 5 5 6 6 6 5 5 4 4 4 4 4 4 4 4
3 3 3 3 3 3 3 3 4 4 4 4 4 4 4 4 4 4 4 4 4 5 5 6 6 7 7 6 6 6 6 6 6 6 4 3 3 3 3 3 4 4 4
Wind_Direction
66 94 88 89 97 107 155 198 211 327 221 203 212 213 213 213 211 209 215 203 208 220 223 220 227 215 208 209 207 206 209 205 234 253 238 242 212 221 222 221 225 225 230
42 68 84 86 100 114 164 226 202 223 243 226 210 206 205 210 212 215 217 215 213 218 223 223 229 219 217 215 212 219 220 214 216 242 251 242 234 223 215 218 224 226 228
47 56 63 55 60 112 246 244 214 214 240 239 199 201 212 215 218 221 218 218 218 219 219 222 226 216 223 225 219 220 222 222 217 219 242 252 253 241 228 248 230 227 236
47 63 61 38 7 337 344 8 344 200 204 258 245 221 218 220 225 226 220 218 220 225 224 224 224 220 223 218 220 222 214 213 212 206 226 244 250 242 195 233 261 243 245
29 39 24 7 21 25 19 15 21 44 92 245 267 260 243 218 228 225 219 221 218 228 234 231 232 234 232 221 222 217 206 211 210 216 227 233 231 219 220 212 237 258 272
354 343 340 17 29 29 16 8 10 5 353 2 317 280 273 278 278 239 219 219 222 220 233 243 241 236 241 235 230 218 207 208 213 216 227 227 234 228 212 209 207 226 267
337 324 343 9 13 344 4 20 358 337 340 347 322 305 292 289 291 251 234 223 226 227 226 233 245 247 239 229 233 232 230 228 217 213 224 230 227 219 204 211 213 221 237
350 334 331 330 326 331 351 327 317 324 317 285 289 289 297 309 302 270 237 225 228 234 230 226 225 238 232 222 221 235 248 251 239 230 228 232 228 212 206 211 214 228 263
340 331 323 304 293 297 295 297 304 317 319 297 293 298 298 305 318 292 255 234 237 247 239 232 222 231 247 235 220 232 254 270 264 246 246 244 238 227 208 184 192 205 251
326 324 333 322 285 270 269 280 293 289 290 295 301 286 276 283 302 289 250 229 236 247 252 250 250 250 249 233 225 230 241 256 255 260 258 255 242 230 216 209 202 211 233
326 332 335 330 309 272 270 286 275 292 302 299 299 299 288 286 294 281 251 237 235 238 245 251 257 266 260 247 245 241 250 254 238 235 239 247 239 228 221 220 212 209 222
343 341 333 324 319 327 298 306 303 270 271 282 289 300 299 293 297 286 265 254 248 233 243 248 254 263 259 258 256 268 273 273 230 223 227 238 241 241 236 226 225 232 237
354 346 334 332 333 333 319 310 320 302 268 279 282 287 297 303 303 303 278 267 266 256 252 257 265 267 262 252 257 260 252 232 224 230 233 239 240 231 217 229 244 251 276
354 345 341 346 345 346 340 336 323 309 295 287 280 281 290 294 291 281 272 270 269 267 271 276 278 272 263 270 264 242 230 232 235 242 249 245 236 227 231 234 240 244 265
352 348 348 349 344 346 349 342 327 305 288 284 274 265 268 274 279 284 276 267 257 247 248 264 280 265 253 260 259 253 249 253 263 259 249 239 232 234 249 243 237 242 243
349 347 345 344 340 339 341 348 359 352 350 345 327 308 292 296 306 301 294 289 285 262 239 229 241 244 244 243 245 252 253 247 250 249 237 229 229 231 240 246 243 239 248
339 335 337 339 335 334 334 335 335 347 0 359 352 344 337 335 331 317 300 291 278 240 232 235 241 243 249 245 248 251 257 253 246 242 241 235 233 234 232 234 231 236 246
341 338 342 331 327 325 321 317 317 324 332 336 343 350 351 346 340 333 327 317 298 290 280 256 256 255 253 253 253 261 260 251 246 245 243 237 231 230 231 232 230 230 236
342 339 336 333 330 329 326 323 324 326 330 330 335 342 350 351 352 353 355 351 306 303 308 294 278 267 267 262 258 253 250 252 250 244 238 236 234 231 236 237 238 240 246
340 341 349 347 344 341 337 334 330 333 338 338 335 332 333 343 347 349 353 349 333 315 307 298 293 279 267 260 256 247 244 243 244 245 239 236 236 237 238 238 234 237 243
343 341 349 348 341 337 336 334 331 334 336 332 328 334 342 342 343 343 342 341 333 321 310 299 290 282 270 257 252 247 247 245 239 232 229 232 232 239 244 244 242 241 242
341 338 338 334 332 333 337 338 338 339 335 330 325 332 345 351 347 343 340 337 333 327 320 309 297 288 276 258 251 248 250 247 239 226 223 224 227 236 241 243 242 240 239
345 342 341 338 337 343 352 348 346 341 334 327 327 331 339 345 343 341 338 335 333 330 325 320 310 302 300 284 271 262 251 250 243 228 222 222 226 231 234 240 239 244 244
344 339 336 335 337 341 341 342 341 337 333 332 334 337 339 341 337 332 330 329 328 324 322 318 311 303 300 295 283 272 265 261 250 231 218 218 225 232 234 236 237 238 243
347 339 337 335 337 337 336 335 335 335 335 335 335 336 335 333 328 323 323 325 324 324 322 318 310 306 300 293 288 283 279 281 271 246 226 219 223 224 227 236 240 242 241
348 338 332 331 330 329 328 327 328 330 328 328 329 328 326 324 320 320 320 321 323 320 318 316 311 308 303 295 288 286 287 287 282 271 252 223 218 221 220 229 230 235 236
Height
1478 1478 1479 1479 1479 1480 1480 1480 1480 1481 1481 1482 1482 1483 1484 1485 1486 1487 1488 1489 1490 1491 1492 1494 1495 1496 1498 1499 1500 1501 1502 1503 1503 1503 1505 1505 1506 1507 1507 1508 1509 1510 1510
1476 1477 1477 1477 1478 1478 1478 1478 1478 1478 1478 1479 1479 1480 1480 1481 1482 1483 1484 1485 1486 1487 1488 1490 1491 1492 1493 1495 1496 1497 1498 1499 1499 1499 1500 1501 1502 1502 1503 1503 1504 1505 1506
1475 1475 1475 1475 1475 1476 1476 1476 1476 1476 1476 1476 1476 1477 1477 1478 1479 1479 1480 1481 1482 1483 1484 1485 1487 1488 1489 1490 1491 1492 1493 1494 1495 1495 1495 1496 1497 1498 1498 1499 1499 1500 1501
1473 1473 1473 1473 1473 1473 1474 1473 1473 1473 1473 1473 1473 1474 1474 1475 1475 1476 1477 1478 1478 1479 1480 1481 1482 1483 1484 1485 1486 1487 1489 1490 1490 1491 1491 1492 1492 1493 1494 1494 1494 1495 1496
1471 1471 1471 1471 1471 1471 1471 1471 1471 1471 1471 1471 1471 1471 1471 1471 1472 1473 1473 1474 1475 1475 1476 1477 1478 1479 1480 1481 1482 1483 1484 1485 1485 1486 1486 1487 1487 1488 1489 1489 1490 1490 1491
1470 1469 1469 1469 1469 1469 1469 1469 1468 1468 1468 1468 1468 1468 1468 1468 1469 1469 1470 1470 1471 1471 1472 1473 1474 1475 1476 1477 1478 1479 1480 1480 1480 1481 1481 1482 1482 1483 1484 1485 1485 1485 1485
1468 1468 1468 1467 1467 1467 1466 1466 1466 1466 1466 1465 1465 1465 1465 1465 1466 1466 1467 1467 1467 1468 1468 1469 1470 1470 1471 1472 1473 1474 1475 1475 1476 1477 1476 1477 1478 1478 1479 1480 1480 1480 1480
1466 1466 1466 1465 1465 1464 1464 1463 1463 1463 1463 1462 1462 1462 1462 1462 1463 1463 1464 1464 1464 1464 1465 1465 1466 1466 1467 1468 1469 1469 1469 1470 1471 1471 1472 1472 1473 1474 1474 1475 1475 1475 1475
1465 1464 1463 1463 1462 1462 1461 1461 1460 1460 1460 1460 1459 1459 1459 1459 1460 1460 1461 1460 1460 1460 1461 1461 1462 1462 1463 1464 1464 1464 1464 1465 1466 1466 1467 1467 1468 1469 1469 1470 1469 1470 1469
1462 1462 1461 1461 1460 1460 1459 1458 1458 1458 1457 1457 1457 1457 1456 1456 1457 1457 1457 1457 1457 1457 1457 1457 1458 1458 1459 1459 1459 1459 1459 1459 1460 1461 1461 1462 1462 1463 1464 1464 1464 1465 1464
1461 1460 1459 1459 1458 1457 1457 1456 1456 1455 1455 1455 1454 1454 1454 1454 1454 1454 1454 1454 1454 1454 1453 1453 1453 1454 1454 1455 1455 1455 1454 1455 1455 1456 1456 1456 1457 1457 1458 1459 1459 1460 1459
1458 1458 1457 1456 1456 1455 1454 1454 1454 1453 1452 1452 1451 1451 1451 1451 1450 1450 1451 1451 1451 1450 1450 1450 1450 1450 1450 1450 1450 1450 1450 1450 1450 1450 1450 1450 1451 1451 1452 1453 1454 1454 1455
1456 1455 1455 1454 1454 1453 1452 1451 1451 1450 1450 1449 1449 1448 1448 1447 1447 1447 1447 1447 1447 1447 1446 1446 1446 1446 1446 1446 1446 1446 1446 1445 1445 1445 1445 1445 1446 1447 1447 1448 1448 1449 1449
1454 1453 1453 1452 1451 1450 1450 1449 1448 1448 1447 1447 1446 1445 1445 1444 1444 1444 1443 1443 1443 1443 1443 1442 1442 1442 1442 1442 1442 1441 1441 1441 1440 1440 1441 1441 1441 1442 1442 1443 1443 1443 1443
1453 1452 1451 1450 1449 1448 1447 1447 1446 1445 1445 1444 1443 1443 1442 1441 1441 1441 1440 1440 1439 1439 1439 1438 1438 1438 1437 1437 1437 1437 1437 1437 1436 1436 1436 1436 1437 1437 1437 1437 1438 1438 1438
1451 1450 1449 1448 1447 1446 1445 1444 1443 1443 1442 1441 1441 1440 1439 1438 1437 1437 1437 1436 1435 1435 1435 1434 1434 1434 1433 1433 1433 1433 1433 1432 1432 1432 1432 1432 1432 1432 1433 1433 1433 1433 1433
1449 1448 1447 1446 1445 1444 1443 1442 1440 1440 1439 1438 1437 1436 1435 1435 1434 1433 1433 1432 1432 1431 1431 1430 1430 1430 1430 1429 1429 1429 1428 1428 1428 1428 1428 1428 1428 1428 1428 1428 1428 1428 1428
1448 1447 1446 1444 1443 1442 1441 1440 1438 1437 1436 1435 1434 1433 1432 1431 1430 1430 1429 1429 1428 1428 1427 1427 1426 1426 1426 1426 1425 1425 1425 1424 1424 1424 1424 1424 1424 1424 1424 1424 1424 1424 1424
1446 1445 1444 1443 1441 1440 1439 1437 1436 1435 1434 1433 1431 1430 1429 1428 1428 1427 1426 1425 1424 1424 1424 1423 1423 1423 1422 1422 1422 1421 1421 1421 1420 1420 1420 1420 1420 1420 1420 1420 1420 1420 1420
1444 1443 1442 1441 1439 1438 1437 1435 1434 1433 1432 1430 1429 1428 1427 1426 1425 1424 1423 1422 1421 1421 1420 1420 1419 1419 1419 1418 1418 1418 1417 1417 1417 1416 1416 1417 1417 1417 1416 1416 1416 1416 1416
1443 1441 1440 1439 1437 1436 1435 1434 1432 1431 1430 1428 1427 1426 1425 1424 1422 1421 1420 1419 1419 1418 1417 1417 1416 1416 1415 1415 1414 1414 1414 1413 1413 1413 1413 1413 1413 1413 1413 1413 1413 1413 1413
1441 1440 1438 1437 1436 1434 1433 1432 1431 1429 1428 1427 1425 1424 1423 1422 1420 1419 1418 1417 1416 1415 1415 1414 1413 1412 1412 1411 1411 1410 1410 1410 1409 1409 1409 1409 1409 1410 1410 1410 1410 1409 1409
1440 1438 1437 1436 1434 1433 1432 1431 1429 1428 1426 1425 1424 1422 1421 1420 1419 1417 1416 1415 1414 1413 1412 1411 1410 1409 1409 1408 1408 1408 1407 1406 1406 1406 1406 1406 1406 1406 1406 1406 1406 1405 1405
1438 1437 1436 1434 1433 1432 1430 1429 1428 1426 1425 1424 1422 1421 1420 1418 1417 1416 1414 1413 1412 1410 1409 1408 1407 1407 1406 1406 1405 1404 1404 1403 1403 1402 1402 1402 1402 1402 1402 1402 1402 1402 1402
1436 1435 1434 1433 1431 1430 1429 1427 1426 1424 1423 1422 1420 1419 1418 1417 1415 1414 1413 1411 1410 1408 1407 1406 1405 1404 1403 1403 1402 1401 1400 1400 1399 1399 1399 1399 1399 1399 1399 1399 1399 1398 1398
1434 1433 1432 1431 1429 1428 1427 1425 1424 1423 1421 1420 1419 1417 1416 1415 1413 1412 1411 1409 1408 1406 1405 1404 1403 1402 1400 1400 1399 1398 1397 1397 1396 1396 1396 1396 1395 1395 1395 1395 1395 1395 1395